Weather History for Alturas, CA

Change the Weather History Date:

Saturday, November 16, 2013

  Actual Average Record
Temperature  
Mean Temperature 42 °F 36 °F  
Max Temperature 50 °F 49 °F 71 °F (2008)
Min Temperature 33 °F 23 °F 7 °F (1959)
Degree Days  
Heating Degree Days 23 29  
Month to date heating degree days 386 424  
Since 1 July heating degree days 1341 1367  
Cooling Degree Days 0 0  
Month to date cooling degree days 0 0  
Year to date cooling degree days 280 156  
Moisture  
Dew Point 26 °F    
Average Humidity 53    
Maximum Humidity 70    
Minimum Humidity 36    
Precipitation  
Precipitation 0.00 in 0.06 in 1.08 in (1981)
Month to date precipitation 0.01 0.97  
Year to date precipitation 5.84 11.64  
Sea Level Pressure  
Sea Level Pressure 29.77 in    
Wind  
Wind Speed 9 mph (WSW)    
Max Wind Speed 20 mph    
Max Gust Speed 25 mph    
Visibility 10 miles    
Events      
T = Trace of Precipitation, MM = Missing Value Source: NWS Daily Summary

Daily Weather History Graph

Daily Weather History Graph

Search for Another Location

Airport:

Trip Planner

Search our weather history database for the weather conditions in past years. The results will help you decide how hot, cold, wet, or windy it might be!

Date:

Astronomy

Nov. 16, 2013 Rise Set
Actual Time 6:52 AM PST 4:41 PM PST
Civil Twilight 6:22 AM PST 5:11 PM PST
Nautical Twilight 5:49 AM PST 5:44 PM PST
Astronomical Twilight 5:16 AM PST 6:17 PM PST
Moon 4:20 PM PST (11/16) 5:53 AM PST (11/16)
Length of Visible Light 10h 48m
Length of Day
9h 48m
Waxing Gibbous, 99% of the Moon is Illuminated
Nov 16
Waxing Gibbous
Nov 17
Full
Nov 25
Last Quarter
Dec 2
New
Dec 9
First Quarter

Hourly Weather History & Observations

Time (PST) Temp. Windchill Dew Point Humidity Pressure Visibility Wind Dir Wind Speed Gust Speed Precip Events Conditions
12:55 AM 35.1 °F - 21.0 °F 57% 29.70 in 6.0 mi Calm Calm - N/A   Haze
1:55 AM 36.0 °F 33.3 °F 21.9 °F 57% 29.70 in 10.0 mi Variable 3.5 mph - N/A   Overcast
2:55 AM 35.1 °F - 21.9 °F 59% 29.70 in 10.0 mi Calm Calm - N/A   Overcast
3:55 AM 37.0 °F 34.5 °F 21.9 °F 54% 29.71 in 10.0 mi East 3.5 mph - N/A   Overcast
4:55 AM 36.0 °F 33.3 °F 21.9 °F 57% 29.72 in 10.0 mi SE 3.5 mph - N/A   Overcast
5:55 AM 36.0 °F 32.1 °F 23.0 °F 59% 29.71 in 10.0 mi SE 4.6 mph - N/A   Overcast
6:55 AM 35.1 °F 27.4 °F 23.0 °F 61% 29.73 in 10.0 mi South 10.4 mph - N/A   Overcast
7:55 AM 37.0 °F 31.6 °F 23.0 °F 57% 29.73 in 10.0 mi South 6.9 mph - N/A   Overcast
8:55 AM 39.9 °F 34.5 °F 23.0 °F 51% 29.74 in 10.0 mi South 8.1 mph - N/A   Overcast
9:55 AM 43.0 °F 38.2 °F 25.0 °F 49% 29.74 in 10.0 mi South 8.1 mph - N/A   Overcast
10:55 AM 46.0 °F 39.3 °F 28.0 °F 50% 29.75 in 10.0 mi West 16.1 mph - N/A   Scattered Clouds
11:55 AM 48.0 °F - 26.1 °F 42% 29.73 in 10.0 mi West 11.5 mph 20.7 mph N/A   Scattered Clouds
12:55 PM 48.9 °F - 24.1 °F 38% 29.71 in 10.0 mi West 16.1 mph 25.3 mph N/A   Partly Cloudy
1:55 PM 48.9 °F - 25.0 °F 39% 29.70 in 10.0 mi WSW 18.4 mph 21.9 mph N/A   Partly Cloudy
2:55 PM 50.0 °F - 25.0 °F 38% 29.71 in 10.0 mi SW 16.1 mph 24.2 mph N/A   Overcast
3:55 PM 48.9 °F - 26.1 °F 41% 29.73 in 10.0 mi WSW 16.1 mph - N/A   Mostly Cloudy
4:55 PM 44.1 °F 37.4 °F 27.0 °F 51% 29.76 in 10.0 mi WSW 13.8 mph 21.9 mph N/A   Mostly Cloudy
5:55 PM 43.0 °F 36.0 °F 28.9 °F 58% 29.79 in 10.0 mi West 13.8 mph - N/A   Mostly Cloudy
6:55 PM 39.9 °F 32.9 °F 30.0 °F 68% 29.83 in 10.0 mi West 11.5 mph - N/A   Clear
7:55 PM 39.0 °F 32.8 °F 30.0 °F 70% 29.85 in 10.0 mi West 9.2 mph - N/A   Scattered Clouds
8:55 PM 39.0 °F 33.4 °F 30.9 °F 73% 29.87 in 10.0 mi West 8.1 mph - N/A   Partly Cloudy
9:51 PM 39.2 °F 35.0 °F 30.2 °F 70% 29.89 in 10.0 mi WSW 5.8 mph - N/A   Mostly Cloudy
9:55 PM 39.0 °F 34.8 °F 30.9 °F 73% 29.88 in 10.0 mi West 5.8 mph - N/A   Overcast
10:30 PM 37.9 °F 32.7 °F 28.9 °F 70% 29.89 in 10.0 mi WNW 6.9 mph - N/A   Mostly Cloudy
10:55 PM 37.9 °F 33.5 °F 28.9 °F 70% 29.90 in 10.0 mi West 5.8 mph - N/A   Overcast
11:55 PM 37.9 °F 31.5 °F 30.0 °F 73% 29.91 in 10.0 mi WSW 9.2 mph - N/A   Mostly Cloudy